Regional Weather Roundup
Issued by NWS

Home | Current Version | Previous Version | Graphics & Text | Print | Product List | Glossary On
Versions: 1 2 3 4 5 6 7 8 9 10 11 12 13 14 15 16 17 18 19 20 21 22 23 24 25 26 27
000
ASUS45 KCYS 180710
RWRWY

WYOMING REGIONAL WEATHER ROUNDUP
NATIONAL WEATHER SERVICE CHEYENNE WY
100 AM MDT FRI APR 18 2014

NOTE:  "FAIR" INDICATES FEW OR NO CLOUDS BELOW 12,000 FEET
WITH NO SIGNIFICANT WEATHER AND/OR OBSTRUCTIONS TO VISIBILITY.

WYZ001-180800-
YELLOWSTONE NATIONAL PARK

CITY           SKY/WX    TMP DP  RH WIND       PRES   REMARKS
LK YELLOWSTONE   N/A     26  21  81 W3        29.94F
W YELLOWSTONE  NOT AVBL

$$
WYZ002>013-054>058-071-098>099-180800-
NORTHERN WYOMING

CITY           SKY/WX    TMP DP  RH WIND       PRES   REMARKS
JACKSON        PTCLDY    36  27  69 CALM      29.91F
CODY           PTCLDY    50  25  37 SW13      29.81F
GREYBULL       PTCLDY    46  32  58 CALM      29.80F
WORLAND        CLEAR     41  31  67 SW5       29.82S
SHERIDAN       CLOUDY    39  33  79 W3        29.79F
BUFFALO        CLOUDY    46  26  45 VRB3      29.82F
GILLETTE       MOCLDY    44  35  70 S14       29.84F
HULETT         FAIR     N/A N/A N/A S6        29.86
NEWCASTLE      FAIR      46  34  61 E13       29.90

$$
WYZ014>020-022>026-101>103-180800-
CENTRAL WYOMING

CITY           SKY/WX    TMP DP  RH WIND       PRES   REMARKS
BIG PINEY      PTCLDY    28  20  71 CALM      29.99F
PINEDALE       MOSUNNY   30  28  93 W5        30.00F WCI  25
DUBOIS         FAIR      34  21  60 NW9       29.92F WCI  26
LANDER         CLEAR     43  26  51 SE6       29.89F
RIVERTON       CLEAR     42  19  39 SW8       29.91R
CASPER         CLEAR     43  27  53 SW13      29.89S
DOUGLAS        PTCLDY    38  33  82 SE8       29.90S WCI  32

$$
WYZ021-027>030-104>119-180800-
SOUTHERN WYOMING

CITY           SKY/WX    TMP DP  RH WIND       PRES   REMARKS
EVANSTON       PTCLDY    48  24  39 SE7       29.97F
KEMMERER       CLOUDY    36  27  69 CALM      29.99S
FORT BRIDGER   CLOUDY    45  25  44 S6        30.01S
ROCK SPRINGS   PTCLDY    44  20  38 SE9       30.00S
DIXON          FAIR      35  26  68 CALM      30.09R
RAWLINS        CLEAR     49  20  31 SW20G29   30.00R
SARATOGA       FAIR      39  23  52 CALM      30.03S
LARAMIE        PTCLDY    40  23  50 S6        30.02F
CHEYENNE       PTCLDY    40  31  70 VRB3      30.02R
TORRINGTON     CLEAR     39  34  82 E9        29.93S WCI  33
PINE BLUFFS    FAIR      39  32  75 S12       30.00F WCI  32

$$



USA.gov is the U.S. government's official web portal to all federal, state and local government web resources and services.